COSMOS 2251 DEB, 33932

Orbit data source: Space-Track

COSMOS 2251 DEB, 33932 is space debris in LEO originally from a launch on Wed, 16 Jun 1993 UTC launched from the Plesetsk Missile And Space Complex (PKMTR). The debris from Iridium 33, an American commercial communications satellite, has been tracked extensively since its accidental collision with the defunct Russian satellite Cosmos 2251 in 2009. This event, occurring at high speed in low Earth orbit (LEO), generated thousands of pieces of space debris, significantly increasing the risk of further collisions. The Iridium 33 debris cloud has impacted space traffic management and orbital debris mitigation strategies, making it a subject of ongoing study in space situational awareness.

Loading next visibility...
Identifier
33932, 1993-036EM
Orbit
LEO
Country
Flag of CISCIS
Related business
Manufacturer
Unknown
Mission
Spacecraft
Bus & Motor
Unknown
Mass
Unknown
Launch date (UTC)
1993-06-16 (33 years ago)
Launch vehicle
Unknown
Launch site
Plesetsk Missile And Space Complex (PKMTR)
Object type
Payload
Rocket body
Debris
Shape & HBR
Unknown shape, 0.2 m
Radar Cross Section
Medium (>0.1 m² and <1 m²)

Expand to show TLE details & history
Last TLE update: 13 hours ago

TLE from 13 hours ago
0 COSMOS 2251 DEB
1 33932U 93036EM  26263.14216601  .00000585  00000-0  19500-3 0  9997
2 33932  74.0338 156.6013 0036464 168.6185 191.5803 14.39393014920462
Epoch: 2026-09-20T03:24Z
TLE epoch observation values (Epoch: 2026-09-20T03:24:43.143Z)
Latitude
-0.00002°
Longitude
106.38094°
Altitude
788.628 km
Speed
7.446 km/s
True Right ascension
10h 26m 24s
True Declination
0° 00' 00"
Sunlit
Object was in daylight at epoch
Visualization orbit readout
Latitude
Unknown
Longitude
Unknown
Altitude
Unknown
Speed
Unknown
Apparent Right ascension
Unknown
Apparent Declination
Unknown
Sunlit
N/A
Visualization observer readout
Local Sidereal Time
09:46:52
Azimuth
Unknown
Elevation
Unknown
Doppler factor
Unknown
Orbital elements
Apogee altitude
784.147 km
Perigee altitude
732.103 km
Semi-major axis
7,136.262 km
Eccentricity
0.00365
Inclination
74.0338°
RAAN
156.6013°
Arg. of periapsis
168.6185°
True anomaly
191.49679°
Mean anomaly
191.5803°
Eccentric anomaly
191.53851°
Mean motion
3.60029 °/min
Orbital period
99.99 mins
BSTAR
0.000195

Documentation

Showing up to 5 results
|